GW5725 Weather Reports


Display with metric or nautical units.
time (UTC)temp
F
wind
direction
speed
MPH
gust
MPH
rain 1hr
in
rain 24hr
in
rain mn
in
humidity
%
barometer
mb
20260505171008 76 327 3.0 7.0 0.00 0.00 0.00 41 1016.4
20260505170510 76 92 2.0 8.0 0.00 0.00 0.00 39 1016.3
20260505170005 76 205 2.0 8.0 0.00 0.00 0.00 39 1016.3
20260505165504 75 348 2.0 9.0 0.00 0.00 0.00 37 1016.4
20260505165006 75 215 2.0 9.0 0.00 0.00 0.00 39 1016.5
20260505164508 75 91 1.0 11.0 0.00 0.00 0.00 40 1016.5
20260505164006 75 222 3.0 11.0 0.00 0.00 0.00 43 1016.7
20260505163506 75 346 2.0 9.0 0.00 0.00 0.00 41 1016.7
20260505163019 75 162 3.0 9.0 0.00 0.00 0.00 41 1016.7
20260505162507 75 165 2.0 7.0 0.00 0.00 0.00 43 1016.7
20260505162008 75 333 1.0 5.0 0.00 0.00 0.00 42 1016.6
20260505161516 75 203 1.0 4.0 0.00 0.00 0.00 44 1016.8
20260505161007 75 263 1.0 5.0 0.00 0.00 0.00 44 1016.8
20260505160508 75 251 2.0 6.0 0.00 0.00 0.00 43 1017.1
20260505153029 73 188 2.0 5.0 0.00 0.00 0.00 48 1017.2
20260505152506 72 244 1.0 5.0 0.00 0.00 0.00 52 1017.3
20260505152010 72 171 1.0 6.0 0.00 0.00 0.00 51 1017.5
20260505151516 72 232 1.0 6.0 0.00 0.00 0.00 54 1017.6
20260505151009 71 292 1.0 5.0 0.00 0.00 0.00 54 1017.5
20260505150513 71 273 2.0 6.0 0.00 0.00 0.00 53 1017.5
20260505140510 67 339 1.0 4.0 0.00 0.00 0.00 60 1017.1
20260505125012 62 246 1.0 3.0 0.00 0.00 0.00 71 1016.6
20260505124522 62 334 1.0 3.0 0.00 0.00 0.00 71 1016.6
20260505124011 62 286 1.0 6.0 0.00 0.00 0.00 72 1016.5
20260505123510 61 326 1.0 6.0 0.00 0.00 0.00 73 1016.6
20260505123026 61 225 2.0 6.0 0.00 0.00 0.00 73 1016.5
20260505122510 60 234 1.0 4.0 0.00 0.00 0.00 74 1016.6
20260505122010 60 247 1.0 4.0 0.00 0.00 0.00 74 1016.5
20260505121510 59 273 1.0 4.0 0.00 0.00 0.00 75 1016.5
20260505121007 59 293 0.0 7.0 0.00 0.00 0.00 75 1016.5
20260505120506 58 336 2.0 7.0 0.00 0.00 0.00 76 1016.3
20260505120017 58 293 1.0 2.0 0.00 0.00 0.00 76 1016.3
20260505115506 57 350 1.0 3.0 0.00 0.00 0.00 77 1016.2
20260505115007 57 309 1.0 3.0 0.00 0.00 0.00 77 1016.2
20260505114518 57 299 1.0 3.0 0.00 0.00 0.00 77 1016.1
20260505114010 57 9 0.0 2.0 0.00 0.00 0.00 78 1016.2
20260505113510 56 320 0.0 3.0 0.00 0.00 0.00 78 1016.2
20260505113026 56 327 0.0 3.0 0.00 0.00 0.00 79 1016.2
20260505112512 56 338 0.0 4.0 0.00 0.00 0.00 79 1016.3
20260505112010 55 300 1.0 4.0 0.00 0.00 0.00 79 1016.3
20260505111526 55 11 0.0 2.0 0.00 0.00 0.00 80 1016.4
20260505111011 55 313 0.0 3.0 0.00 0.00 0.00 80 1016.3
20260505110504 55 339 1.0 3.0 0.00 0.00 0.00 81 1016.3
20260505102013 54 181 0.0 2.0 0.00 0.00 0.00 80 1016.1
20260505101534 54 295 0.0 1.0 0.00 0.00 0.00 81 1016.1
20260505101010 53 103 0.0 1.0 0.00 0.00 0.00 81 1016.1
20260505100512 53 64 0.0 0.0 0.00 0.00 0.00 81 1016.1
20260505100028 53 134 0.0 0.0 0.00 0.00 0.00 81 1016.0
20260505095508 53 125 0.0 0.0 0.00 0.00 0.00 82 1016.1
20260505095008 52 123 0.0 0.0 0.00 0.00 0.00 81 1016.0
20260505094517 52 165 0.0 0.0 0.00 0.00 0.00 81 1016.0
20260505094007 52 166 0.0 0.0 0.00 0.00 0.00 81 1015.9
20260505093506 52 166 0.0 0.0 0.00 0.00 0.00 81 1016.0
20260505093033 52 166 0.0 0.0 0.00 0.00 0.00 81 1016.0
20260505092509 52 166 0.0 0.0 0.00 0.00 0.00 80 1016.0
20260505092012 52 166 0.0 0.0 0.00 0.00 0.00 80 1016.0
20260505091504 52 166 0.0 0.0 0.00 0.00 0.00 79 1016.0
20260505091007 52 166 0.0 0.0 0.00 0.00 0.00 79 1015.9
20260505090505 52 166 0.0 0.0 0.00 0.00 0.00 78 1015.9
20260505090010 52 166 0.0 0.0 0.00 0.00 0.00 77 1015.9
20260505085508 53 166 0.0 0.0 0.00 0.00 0.00 77 1015.8
20260505085005 53 166 0.0 0.0 0.00 0.00 0.00 77 1015.9
20260505084513 53 166 0.0 0.0 0.00 0.00 0.00 76 1015.8
20260505084008 53 166 0.0 0.0 0.00 0.00 0.00 75 1015.7
20260505083510 53 166 0.0 0.0 0.00 0.00 0.00 75 1015.7
20260505083025 53 166 0.0 0.0 0.00 0.00 0.00 74 1015.6
20260505082504 54 166 0.0 0.0 0.00 0.00 0.00 74 1015.6
20260505082004 54 166 0.0 0.0 0.00 0.00 0.00 73 1015.7
20260505081507 54 166 0.0 0.0 0.00 0.00 0.00 73 1015.6
20260505081004 54 166 0.0 0.0 0.00 0.00 0.00 73 1015.5
20260505080504 54 166 0.0 0.0 0.00 0.00 0.00 72 1015.4
20260505080006 54 166 0.0 0.0 0.00 0.00 0.00 72 1015.4
20260505075507 55 166 0.0 0.0 0.00 0.00 0.00 71 1015.4
20260505075004 55 163 0.0 0.0 0.00 0.00 0.00 70 1015.4
20260505074511 55 164 0.0 0.0 0.00 0.00 0.00 70 1015.4
20260505074005 55 164 0.0 0.0 0.00 0.00 0.00 70 1015.3
20260505073508 55 164 0.0 0.0 0.00 0.00 0.00 69 1015.3
20260505073016 55 164 0.0 0.0 0.00 0.00 0.00 69 1015.3
20260505072512 55 164 0.0 0.0 0.00 0.00 0.00 68 1015.3
20260505072007 55 164 0.0 0.0 0.00 0.00 0.00 68 1015.4
20260505071524 55 164 0.0 0.0 0.00 0.00 0.00 68 1015.4
20260505071004 55 164 0.0 0.0 0.00 0.00 0.00 67 1015.4
20260505070506 56 164 0.0 0.0 0.00 0.00 0.00 67 1015.4
20260505070006 56 164 0.0 0.0 0.00 0.00 0.00 66 1015.4
20260505065505 56 164 0.0 0.0 0.00 0.00 0.00 66 1015.4
20260505065003 56 164 0.0 0.0 0.00 0.00 0.00 65 1015.3
20260505064508 56 164 0.0 0.0 0.00 0.00 0.00 65 1015.3
20260505064006 56 164 0.0 0.0 0.00 0.00 0.00 64 1015.3
20260505063504 57 164 0.0 0.0 0.00 0.00 0.00 64 1015.3
20260505063016 57 164 0.0 0.0 0.00 0.00 0.00 64 1015.2
20260505062512 57 164 0.0 0.0 0.00 0.00 0.00 63 1015.3
20260505062009 57 164 0.0 0.0 0.00 0.00 0.00 63 1015.4
20260505061519 58 164 0.0 2.0 0.00 0.00 0.00 63 1015.3
20260505061010 58 161 0.0 2.0 0.00 0.00 0.00 62 1015.2
20260505060511 58 261 0.0 2.0 0.00 0.00 0.00 62 1015.2
20260505060004 58 151 0.0 2.0 0.00 0.00 0.00 62 1015.2
20260505055503 58 224 0.0 0.0 0.00 0.00 0.00 62 1015.0
20260505055005 58 224 0.0 0.0 0.00 0.00 0.00 62 1015.1
20260505054508 58 224 0.0 2.0 0.00 0.00 0.00 62 1015.2
20260505054010 58 224 0.0 2.0 0.00 0.00 0.00 61 1015.2
20260505053505 58 224 0.0 0.0 0.00 0.00 0.00 61 1015.2
20260505053015 58 224 0.0 0.0 0.00 0.00 0.00 61 1015.2
20260505052507 58 224 0.0 0.0 0.00 0.00 0.00 61 1015.4
20260505052012 59 224 0.0 0.0 0.00 0.00 0.00 61 1015.4
20260505051531 59 224 0.0 0.0 0.00 0.00 0.00 60 1015.5
20260505051011 59 224 0.0 0.0 0.00 0.00 0.00 60 1015.5
20260505050511 59 224 0.0 0.0 0.00 0.00 0.00 59 1015.5
20260505041514 61 224 0.0 0.0 0.00 0.00 0.00 56 1015.4
20260505041007 61 224 0.0 0.0 0.00 0.00 0.00 56 1015.4
20260505040507 62 225 0.0 0.0 0.00 0.00 0.00 55 1015.5
20260505040025 62 225 0.0 0.0 0.00 0.00 0.00 55 1015.6
20260505035510 62 225 0.0 0.0 0.00 0.00 0.00 55 1015.6
20260505035007 62 225 0.0 0.0 0.00 0.00 0.00 56 1015.6
20260505034530 62 225 0.0 0.0 0.00 0.00 0.00 56 1015.6
20260505034007 62 225 0.0 0.0 0.00 0.00 0.00 56 1015.6
20260505033505 62 225 0.0 0.0 0.00 0.00 0.00 55 1015.6
20260505033009 62 225 0.0 0.0 0.00 0.00 0.00 55 1015.6
20260505032504 62 225 0.0 0.0 0.00 0.00 0.00 55 1015.7
20260505032007 63 225 0.0 0.0 0.00 0.00 0.00 54 1015.7
20260505031516 63 225 0.0 0.0 0.00 0.00 0.00 54 1015.6
20260505031007 63 225 0.0 0.0 0.00 0.00 0.00 54 1015.6
20260505030508 63 225 0.0 0.0 0.00 0.00 0.00 54 1015.6
20260505030020 63 225 0.0 0.0 0.00 0.00 0.00 54 1015.7
20260505025511 63 225 0.0 0.0 0.00 0.00 0.00 54 1015.7
20260505025011 63 225 0.0 0.0 0.00 0.00 0.00 54 1015.7
20260505024525 63 249 0.0 2.0 0.00 0.00 0.00 54 1015.6
20260505024009 63 249 0.0 2.0 0.00 0.00 0.00 54 1015.5
20260505023508 63 249 0.0 2.0 0.00 0.00 0.00 54 1015.6
20260505023027 63 195 0.0 0.0 0.00 0.00 0.00 54 1015.5
20260505022506 63 195 0.0 0.0 0.00 0.00 0.00 54 1015.5
20260505022005 62 195 0.0 0.0 0.00 0.00 0.00 54 1015.4
20260505021512 62 195 0.0 0.0 0.00 0.00 0.00 54 1015.4
20260505021005 62 195 0.0 0.0 0.00 0.00 0.00 54 1015.3
20260505020507 62 195 0.0 0.0 0.00 0.00 0.00 54 1015.3
20260505020016 62 195 0.0 0.0 0.00 0.00 0.00 54 1015.3
20260505015512 63 195 0.0 0.0 0.00 0.00 0.00 53 1015.3
20260505015012 63 195 0.0 0.0 0.00 0.00 0.00 53 1015.3
20260505014525 63 195 0.0 0.0 0.00 0.00 0.00 52 1015.1
20260505014012 63 195 0.0 0.0 0.00 0.00 0.00 51 1015.1
20260505013508 64 195 0.0 1.0 0.00 0.00 0.00 52 1015.1
20260505013026 64 195 0.0 1.0 0.00 0.00 0.00 51 1015.1
20260505012511 64 195 0.0 2.0 0.00 0.00 0.00 50 1014.9
20260505012009 64 195 0.0 2.0 0.00 0.00 0.00 49 1014.9
20260505011508 65 195 0.0 2.0 0.00 0.00 0.00 48 1014.9
20260505011005 65 195 0.0 2.0 0.00 0.00 0.00 47 1014.8
20260505010508 65 195 0.0 2.0 0.00 0.00 0.00 47 1014.9
20260505010019 66 195 0.0 2.0 0.00 0.00 0.00 46 1014.8
20260505005509 66 195 0.0 2.0 0.00 0.00 0.00 45 1014.9
20260505005008 67 195 0.0 2.0 0.00 0.00 0.00 44 1014.9
20260505004524 67 195 0.0 2.0 0.00 0.00 0.00 44 1014.7
20260505004008 68 195 0.0 2.0 0.00 0.00 0.00 44 1014.6
20260505003515 68 195 0.0 2.0 0.00 0.00 0.00 43 1014.6
20260505003024 69 169 0.0 2.0 0.00 0.00 0.00 41 1014.5
20260505002509 69 169 0.0 0.0 0.00 0.00 0.00 41 1014.6
20260505002011 69 169 0.0 2.0 0.00 0.00 0.00 40 1014.6
20260505001508 70 169 0.0 2.0 0.00 0.00 0.00 40 1014.6
20260505001003 70 169 0.0 2.0 0.00 0.00 0.00 39 1014.5
20260505000504 71 169 0.0 2.0 0.00 0.00 0.00 38 1014.5
20260505000014 71 169 0.0 2.0 0.00 0.00 0.00 38 1014.5
20260504235508 71 169 0.0 3.0 0.00 0.00 0.00 37 1014.5
20260504235007 71 169 0.0 3.0 0.00 0.00 0.00 37 1014.3
20260504234522 72 228 0.0 2.0 0.00 0.00 0.00 37 1014.3
20260504234007 72 217 0.0 5.0 0.00 0.00 0.00 37 1014.3
20260504233508 72 217 0.0 5.0 0.00 0.00 0.00 38 1014.2
20260504233024 73 246 1.0 3.0 0.00 0.00 0.00 37 1014.2
20260504232509 73 223 1.0 4.0 0.00 0.00 0.00 36 1014.2
20260504232003 73 217 1.0 5.0 0.00 0.00 0.00 37 1014.2
20260504231504 74 229 1.0 5.0 0.00 0.00 0.00 36 1014.1
20260504231005 74 153 2.0 3.0 0.00 0.00 0.00 35 1014.1
20260504230504 74 199 1.0 7.0 0.00 0.00 0.00 34 1014.1
20260504230011 74 171 2.0 7.0 0.00 0.00 0.00 34 1014.1
20260504225509 75 207 1.0 8.0 0.00 0.00 0.00 33 1014.0
20260504225006 75 360 3.0 8.0 0.00 0.00 0.00 33 1014.1
20260504224519 75 225 0.0 11.0 0.00 0.00 0.00 34 1014.0
20260504224007 76 160 3.0 11.0 0.00 0.00 0.00 32 1014.0
20260504223508 76 151 2.0 8.0 0.00 0.00 0.00 31 1014.1
20260504223023 77 223 1.0 10.0 0.00 0.00 0.00 31 1014.1
20260504222508 77 352 2.0 10.0 0.00 0.00 0.00 31 1014.2
20260504222013 78 202 1.0 6.0 0.00 0.00 0.00 31 1014.1
20260504221524 78 163 2.0 6.0 0.00 0.00 0.00 30 1014.2
20260504221007 78 254 1.0 4.0 0.00 0.00 0.00 30 1014.2
20260504220506 77 211 2.0 4.0 0.00 0.00 0.00 28 1014.2
20260504220011 78 216 1.0 5.0 0.00 0.00 0.00 27 1014.2
20260504215505 77 235 2.0 5.0 0.00 0.00 0.00 26 1014.2
20260504215007 78 232 2.0 5.0 0.00 0.00 0.00 25 1014.2
20260504214514 78 163 1.0 4.0 0.00 0.00 0.00 28 1014.1
20260504214008 78 181 1.0 3.0 0.00 0.00 0.00 28 1014.1
20260504213509 78 308 0.0 6.0 0.00 0.00 0.00 30 1014.1
20260504213020 78 232 1.0 6.0 0.00 0.00 0.00 29 1014.1
20260504212513 78 221 1.0 8.0 0.00 0.00 0.00 29 1014.1
20260504212013 78 134 1.0 8.0 0.00 0.00 0.00 30 1014.1
20260504211524 78 187 1.0 7.0 0.00 0.00 0.00 28 1014.1
20260504211007 78 184 2.0 7.0 0.00 0.00 0.00 27 1014.0
20260504210514 78 161 2.0 6.0 0.00 0.00 0.00 29 1014.0
20260504210032 77 292 2.0 7.0 0.00 0.00 0.00 28 1014.1
20260504205509 77 169 2.0 7.0 0.00 0.00 0.00 27 1014.2
20260504205005 78 105 2.0 6.0 0.00 0.00 0.00 28 1014.2
20260504204512 78 209 2.0 8.0 0.00 0.00 0.00 27 1014.3
20260504204005 78 80 4.0 8.0 0.00 0.00 0.00 28 1014.3
20260504203513 78 288 1.0 11.0 0.00 0.00 0.00 28 1014.4
20260504203024 78 107 2.0 11.0 0.00 0.00 0.00 29 1014.4
20260504202507 78 54 2.0 7.0 0.00 0.00 0.00 30 1014.3
20260504202008 78 178 2.0 7.0 0.00 0.00 0.00 29 1014.4
20260504201520 78 224 1.0 6.0 0.00 0.00 0.00 28 1014.4
20260504201014 78 117 2.0 8.0 0.00 0.00 0.00 28 1014.4
20260504200509 77 197 2.0 8.0 0.00 0.00 0.00 27 1014.5
20260504200026 77 276 3.0 8.0 0.00 0.00 0.00 28 1014.5
20260504195511 77 235 1.0 8.0 0.00 0.00 0.00 29 1014.6
20260504195013 77 198 2.0 7.0 0.00 0.00 0.00 30 1014.7
20260504194511 77 126 2.0 6.0 0.00 0.00 0.00 30 1014.8
20260504194006 76 130 1.0 4.0 0.00 0.00 0.00 31 1014.8
20260504193509 76 75 2.0 9.0 0.00 0.00 0.00 30 1014.8
20260504193018 76 110 4.0 9.0 0.00 0.00 0.00 31 1014.9
20260504192508 76 208 4.0 7.0 0.00 0.00 0.00 29 1015.0
20260504192012 76 136 2.0 7.0 0.00 0.00 0.00 30 1015.1
20260504191524 76 168 3.0 7.0 0.00 0.00 0.00 28 1015.1
20260504191010 76 164 2.0 7.0 0.00 0.00 0.00 28 1015.3
20260504190508 76 254 1.0 7.0 0.00 0.00 0.00 29 1015.3
20260504190026 76 144 2.0 9.0 0.00 0.00 0.00 28 1015.4
20260504185509 76 133 3.0 9.0 0.00 0.00 0.00 30 1015.5
20260504185011 76 121 3.0 7.0 0.00 0.00 0.00 29 1015.6
20260504184530 76 84 3.0 7.0 0.00 0.00 0.00 30 1015.6
20260504184011 76 186 2.0 7.0 0.00 0.00 0.00 31 1015.7
20260504183509 76 343 1.0 5.0 0.00 0.00 0.00 32 1015.7
20260504183015 76 240 2.0 6.0 0.00 0.00 0.00 31 1015.8
20260504182516 75 313 1.0 8.0 0.00 0.00 0.00 29 1015.7
20260504182015 75 161 3.0 8.0 0.00 0.00 0.00 31 1015.9
20260504181522 75 137 2.0 6.0 0.00 0.00 0.00 29 1015.8
20260504181007 75 215 1.0 6.0 0.00 0.00 0.00 33 1015.9
20260504180511 75 113 3.0 7.0 0.00 0.00 0.00 30 1015.9
20260504180024 74 117 1.0 7.0 0.00 0.00 0.00 33 1015.9
20260504175508 74 75 3.0 6.0 0.00 0.00 0.00 32 1016.1
20260504175010 73 125 2.0 9.0 0.00 0.00 0.00 32 1016.1
20260504174529 73 118 2.0 9.0 0.00 0.00 0.00 33 1016.3
20260504174011 73 78 2.0 7.0 0.00 0.00 0.00 30 1016.3
20260504173510 73 190 1.0 4.0 0.00 0.00 0.00 30 1016.3
20260504173028 73 219 1.0 4.0 0.00 0.00 0.00 33 1016.3
20260504172507 73 140 1.0 6.0 0.00 0.00 0.00 31 1016.4
20260504172008 73 164 2.0 6.0 0.00 0.00 0.00 33 1016.3
20260504171518 73 198 1.0 7.0 0.00 0.00 0.00 37 1016.4